Weather History for Mobile, AL

Change the Weather History Date:

Friday, January 4, 2013

  Actual Average Record
Temperature  
Mean Temperature 46 °F 50 °F  
Max Temperature 58 °F 61 °F 77 °F (2004)
Min Temperature 34 °F 40 °F 17 °F (1919)
Degree Days  
Heating Degree Days 19 15  
Month to date heating degree days 58 60  
Since 1 July heating degree days 659 722  
Cooling Degree Days 0 0  
Month to date cooling degree days 0 0  
Year to date cooling degree days 0 0  
Moisture  
Dew Point 27 °F    
Average Humidity 52    
Maximum Humidity 75    
Minimum Humidity 28    
Precipitation  
Precipitation 0.00 in 0.17 in 1.51 in (1971)
Month to date precipitation 0.50 0.66  
Year to date precipitation 0.50 0.66  
Snow  
Snow 0.00 in 0.00 in 0.00 in (2002)
Month to date snowfall 0.0 0.0  
Since 1 July snowfall 0.0 T  
Snow Depth 0.00 in    
Sea Level Pressure  
Sea Level Pressure 30.38 in    
Wind  
Wind Speed 8 mph (NNE)    
Max Wind Speed 14 mph    
Max Gust Speed 17 mph    
Visibility 10 miles    
Events      
T = Trace of Precipitation, MM = Missing Value Source: NWS Daily Summary

Daily Weather History Graph

Daily Weather History Graph

Search for Another Location

Airport:

Trip Planner

Search our weather history database for the weather conditions in past years. The results will help you decide how hot, cold, wet, or windy it might be!

Date:

Astronomy

Jan. 04, 2013 Rise Set
Actual Time 6:51 AM CST 5:05 PM CST
Civil Twilight 6:24 AM CST 5:31 PM CST
Nautical Twilight 5:54 AM CST 6:01 PM CST
Astronomical Twilight 5:25 AM CST 6:30 PM CST
Moon No Moon Rise 11:04 AM CST (1/4)
Length of Visible Light 11h 07m
Length of Day
10h 14m
Waning Gibbous, 55% of the Moon is Illuminated
Jan 4
Waning Gibbous
Jan 4
Last Quarter
Jan 11
New
Jan 18
First Quarter
Jan 26
Full

Hourly Weather History & Observations

Time (CST) Temp. Windchill Dew Point Humidity Pressure Visibility Wind Dir Wind Speed Gust Speed Precip Events Conditions
12:56 AM 37.0 °F 29.3 °F 25.0 °F 62% 30.35 in 10.0 mi North 11.5 mph - N/A   Clear
1:56 AM 36.0 °F 31.1 °F 25.0 °F 64% 30.36 in 10.0 mi North 5.8 mph - N/A   Clear
2:56 AM 35.1 °F 29.3 °F 25.0 °F 67% 30.37 in 10.0 mi North 6.9 mph - N/A   Clear
3:56 AM 35.1 °F 27.4 °F 25.0 °F 67% 30.35 in 10.0 mi NNE 10.4 mph - N/A   Clear
4:56 AM 35.1 °F 29.3 °F 25.0 °F 67% 30.36 in 10.0 mi NNE 6.9 mph - N/A   Clear
5:56 AM 35.1 °F 27.9 °F 26.1 °F 70% 30.37 in 10.0 mi North 9.2 mph - N/A   Partly Cloudy
6:56 AM 34.0 °F 25.5 °F 26.1 °F 73% 30.38 in 10.0 mi NNE 11.5 mph - N/A   Mostly Cloudy
7:56 AM 36.0 °F 30.3 °F 26.1 °F 67% 30.41 in 10.0 mi North 6.9 mph - N/A   Scattered Clouds
8:56 AM 42.1 °F 36.6 °F 26.1 °F 53% 30.44 in 10.0 mi NE 9.2 mph - N/A   Mostly Cloudy
9:56 AM 46.0 °F 41.0 °F 25.0 °F 44% 30.45 in 10.0 mi NNE 10.4 mph - N/A   Scattered Clouds
10:56 AM 50.0 °F - 25.0 °F 38% 30.43 in 10.0 mi NNE 11.5 mph - N/A   Scattered Clouds
11:56 AM 54.0 °F - 24.1 °F 31% 30.39 in 10.0 mi NNE 6.9 mph - N/A   Partly Cloudy
12:56 PM 55.9 °F - 25.0 °F 30% 30.36 in 10.0 mi North 9.2 mph - N/A   Partly Cloudy
1:56 PM 55.9 °F - 25.0 °F 30% 30.33 in 10.0 mi NE 8.1 mph - N/A   Scattered Clouds
2:56 PM 57.9 °F - 25.0 °F 28% 30.34 in 10.0 mi North 10.4 mph - N/A   Mostly Cloudy
3:56 PM 55.9 °F - 26.1 °F 32% 30.35 in 10.0 mi North 6.9 mph - N/A   Mostly Cloudy
4:56 PM 52.0 °F - 28.0 °F 40% 30.36 in 10.0 mi North 5.8 mph - N/A   Scattered Clouds
5:56 PM 48.9 °F - 30.0 °F 48% 30.38 in 10.0 mi NNW 4.6 mph - N/A   Mostly Cloudy
6:56 PM 44.1 °F 42.5 °F 33.1 °F 65% 30.39 in 10.0 mi NNE 3.5 mph - N/A   Scattered Clouds
7:56 PM 43.0 °F 40.3 °F 30.9 °F 62% 30.40 in 10.0 mi North 4.6 mph - N/A   Partly Cloudy
8:56 PM 45.0 °F 41.8 °F 30.0 °F 56% 30.40 in 10.0 mi North 5.8 mph - N/A   Scattered Clouds
9:56 PM 43.0 °F 40.3 °F 30.0 °F 60% 30.39 in 10.0 mi North 4.6 mph - N/A   Scattered Clouds
10:56 PM 42.1 °F 39.2 °F 30.0 °F 62% 30.37 in 10.0 mi NNE 4.6 mph - N/A   Clear
11:56 PM 43.0 °F 38.2 °F 30.0 °F 60% 30.35 in 10.0 mi NNE 8.1 mph - N/A   Partly Cloudy